UAL50WP KMCO-KEWR

Flight info

Callsign UAL50WP
Flight time N/A
Altitude 31000
Route FATHE4 VIYAP Q87 ALWZZ DCT OGRAE Q99 QUART PHLBO4
Aircraft B738/M-SDE2E3FGHIRWXY/LB1

Departure

Time 2026-05-05 10:38
Airport Orlando International Airport (KMCO)

Arrival

Time N/A
Airport Newark Liberty International Airport (KEWR)
Time Latitude Longitude Altitude Speed Heading
2026-05-05 10:29 28.42625 -81.29995 102 ft 0 kts 240°
2026-05-05 10:33 28.42626 -81.29994 102 ft 0 kts 240°
2026-05-05 10:34 28.42631 -81.29983 99 ft 2 kts 239°
2026-05-05 10:34 28.42639 -81.29968 102 ft 2 kts 239°
2026-05-05 10:34 28.42649 -81.29950 101 ft 3 kts 232°
2026-05-05 10:35 28.42659 -81.29941 100 ft 0 kts 187°
2026-05-05 10:35 28.42648 -81.29925 102 ft 7 kts 127°
2026-05-05 10:35 28.42634 -81.29904 101 ft 7 kts 126°
2026-05-05 10:35 28.42599 -81.29803 102 ft 21 kts 89°
2026-05-05 10:36 28.42507 -81.29699 101 ft 27 kts 179°
2026-05-05 10:36 28.42271 -81.29699 100 ft 41 kts 179°
2026-05-05 10:36 28.41973 -81.29696 103 ft 29 kts 180°
2026-05-05 10:36 28.41759 -81.29693 101 ft 29 kts 180°
2026-05-05 10:37 28.41565 -81.29691 104 ft 26 kts 179°
2026-05-05 10:37 28.41358 -81.29689 100 ft 32 kts 180°
2026-05-05 10:37 28.41134 -81.29687 101 ft 28 kts 179°
2026-05-05 10:37 28.40947 -81.29652 96 ft 25 kts 127°
2026-05-05 10:38 28.41146 -81.29562 99 ft 69 kts
2026-05-05 10:38 28.41907 -81.29570 103 ft 146 kts 359°
2026-05-05 10:38 28.43119 -81.29560 209 ft 203 kts
2026-05-05 10:38 28.44627 -81.29559 812 ft 225 kts
2026-05-05 10:39 28.46223 -81.29587 1696 ft 228 kts
2026-05-05 10:39 28.47810 -81.29383 2367 ft 231 kts 14°
2026-05-05 10:39 28.49303 -81.28761 2859 ft 232 kts 25°
2026-05-05 10:39 28.50651 -81.27796 3433 ft 230 kts 47°
2026-05-05 10:40 28.51600 -81.26263 3724 ft 241 kts 55°
2026-05-05 10:40 28.52856 -81.25020 4129 ft 243 kts 19°
2026-05-05 10:40 28.54523 -81.24763 4649 ft 243 kts
2026-05-05 10:40 28.56228 -81.24833 5082 ft 246 kts 354°
2026-05-05 10:41 28.57948 -81.25003 5507 ft 250 kts 354°
2026-05-05 10:41 28.59683 -81.25272 5820 ft 261 kts 349°
2026-05-05 10:41 28.61522 -81.25628 6099 ft 273 kts 349°
2026-05-05 10:41 28.63474 -81.25987 6221 ft 296 kts 351°
2026-05-05 10:42 28.67784 -81.26616 7204 ft 312 kts 351°
2026-05-05 10:42 28.69898 -81.26902 8310 ft 299 kts 351°
2026-05-05 10:42 28.71921 -81.27176 9297 ft 291 kts 351°
2026-05-05 10:43 28.73935 -81.27450 10029 ft 292 kts 351°
2026-05-05 10:43 28.75994 -81.27733 10384 ft 306 kts 351°
2026-05-05 10:43 28.78145 -81.28029 10527 ft 325 kts 351°
2026-05-05 10:43 28.80470 -81.28348 10690 ft 344 kts 351°
2026-05-05 10:44 28.82918 -81.28683 10843 ft 362 kts 351°
2026-05-05 10:44 28.85484 -81.29011 11007 ft 378 kts 353°
2026-05-05 10:44 28.88132 -81.29243 11396 ft 385 kts 354°
2026-05-05 10:44 28.90781 -81.29439 11940 ft 387 kts 354°
2026-05-05 10:45 28.93488 -81.29647 12512 ft 388 kts 353°
2026-05-05 10:45 28.96179 -81.29868 13059 ft 391 kts 353°
2026-05-05 10:45 28.98913 -81.30102 13573 ft 395 kts 353°
2026-05-05 10:45 29.01677 -81.30380 14078 ft 398 kts 351°
2026-05-05 10:46 29.04440 -81.30698 14590 ft 399 kts 351°
2026-05-05 10:46 29.07176 -81.31014 15130 ft 401 kts 351°
2026-05-05 10:46 29.09964 -81.31330 15643 ft 404 kts 351°
2026-05-05 10:46 29.12782 -81.31608 16152 ft 407 kts 352°
2026-05-05 10:47 29.15629 -81.31795 16659 ft 410 kts 353°
2026-05-05 10:47 29.18498 -81.31941 17175 ft 413 kts 354°
2026-05-05 10:47 29.21378 -81.32078 17650 ft 416 kts 353°
2026-05-05 10:47 29.24272 -81.32217 18132 ft 418 kts 353°
2026-05-05 10:48 29.27154 -81.32362 18570 ft 421 kts 353°
2026-05-05 10:48 29.30098 -81.32515 19011 ft 422 kts 353°
2026-05-05 10:48 29.33047 -81.32674 19489 ft 423 kts 353°
2026-05-05 10:48 29.35951 -81.32833 19938 ft 424 kts 352°
2026-05-05 10:49 29.38902 -81.32997 20378 ft 425 kts 352°
2026-05-05 10:49 29.41873 -81.33163 20807 ft 426 kts 352°
2026-05-05 10:49 29.44855 -81.33330 21241 ft 428 kts 352°
2026-05-05 10:49 29.47794 -81.33495 21654 ft 429 kts 352°
2026-05-05 10:50 29.50789 -81.33663 22071 ft 430 kts 352°
2026-05-05 10:50 29.53791 -81.33831 22462 ft 432 kts 352°
2026-05-05 10:50 29.56805 -81.34001 22830 ft 435 kts 352°
2026-05-05 10:50 29.59839 -81.34171 23173 ft 437 kts 352°
2026-05-05 10:51 29.62895 -81.34343 23567 ft 439 kts 351°
2026-05-05 10:51 29.65954 -81.34514 23907 ft 439 kts 351°
2026-05-05 10:51 29.68968 -81.34683 24245 ft 439 kts 351°
2026-05-05 10:51 29.72021 -81.34853 24591 ft 439 kts 351°
2026-05-05 10:52 29.75083 -81.35025 24919 ft 440 kts 351°
2026-05-05 10:52 29.77116 -81.35139 25127 ft 440 kts 351°